Location: Newark
(23.6000°N, 58.5500°E)
Time: 20:29:47
(UTC+00:00)

X-37B - Visible Passes

Search period start: 23 September 2020 00:00
Search period end: 03 October 2020 00:00
Orbit: 386 x 387 km, 45.0° (Epoch: 18 September)

Date Brightness Start Highest point End Pass type
(mag) Time Alt. Az. Time Alt. Az. Time Alt. Az.
24 Sep 3.4 00:57:13 10° N 00:59:06 15° NNE 01:00:58 10° ENE visible
26 Sep 2.4 00:37:00 18° NNW 00:38:40 29° NE 00:41:29 10° E visible
27 Sep 1.2 01:14:17 14° WNW 01:16:40 38° SW 01:19:38 10° SSE visible
28 Sep 2.1 00:19:22 34° ESE 00:19:22 34° ESE 00:21:17 10° SE visible
28 Sep 1.2 15:07:52 10° SSW 15:10:27 41° SSE 15:10:27 41° SSE visible
29 Sep 2.7 00:56:52 14° SSW 00:56:52 14° SSW 00:57:56 10° S visible
29 Sep 3.2 15:46:09 10° W 15:47:45 21° WNW 15:47:45 21° WNW visible
30 Sep 0.9 14:47:09 10° WSW 14:50:16 65° NW 14:52:33 17° NE visible
01 Oct 3.4 15:26:51 10° WNW 15:28:29 13° NNW 15:29:31 12° N visible
02 Oct 2.6 14:27:02 10° W 14:29:45 26° NW 14:32:29 10° NNE visible
